Regional Weather Roundup
Issued by NWS

Home | Current Version | Previous Version | Text Only | Print | Product List | Glossary Off
Versions: 1 2 3 4 5 6 7 8 9 10 11 12 13 14 15 16 17 18 19 20 21 22 23 24 25 26 27 28 29 30 31 32 33 34 35 36 37 38 39 40 41 42 43 44 45 46 47 48 49 50

000
ASUS43 KOAX 181810
RWRNE

WEATHER ROUNDUP FOR NEBRASKA
NATIONAL WEATHER SERVICE OMAHA NE
1200 PM CST MON DEC 18 2017

NOTES: SATELLITE DATA IS BEING USED TO AUGMENT CLOUD COVER ABOVE
       12000 FEET.
       "FAIR" INDICATES FEW OR NO CLOUDS BELOW 12,000 FEET WITH NO
       SIGNIFICANT WEATHER AND/OR OBSTRUCTIONS TO VISIBILITY.


NEZ001>004-019>022-054>056-181900-
NEBRASKA PANHANDLE

CITY           SKY/WX    TMP DP  RH WIND       PRES   REMARKS
SCOTTSBLUFF    CLOUDY    53  26  35 W29G41    29.89F
6HR MIN TEMP:  19; 6HR MAX TEMP:  53;

ALLIANCE       CLOUDY    51  25  36 W28G36    29.85F
6HR MIN TEMP:  12; 6HR MAX TEMP:  51;

CHADRON        CLOUDY    40  24  53 CALM      29.84S
6HR MIN TEMP:  16; 6HR MAX TEMP:  40;

GORDON         FAIR      46  24  40 W16G23    29.83R
6HR MIN TEMP:  24; 6HR MAX TEMP:  46;

KIMBALL        CLOUDY    52  24  34 W18       29.93F
SIDNEY         CLOUDY    52  23  32 W14       29.93F
6HR MIN TEMP:  16; 6HR MAX TEMP:  54;

$$

NEZ057>060-069>072-079>082-181900-
SOUTHWEST NEBRASKA

CITY           SKY/WX    TMP DP  RH WIND       PRES   REMARKS
NORTH PLATTE   CLOUDY    50  27  40 SW14      29.93F
6HR MIN TEMP:  17; 6HR MAX TEMP:  50;

IMPERIAL       CLOUDY    49  26  41 SW14      29.95F
6HR MIN TEMP:  18; 6HR MAX TEMP:  49;

LEXINGTON      SUNNY     50  28  43 SW13      29.95F
MCCOOK         SUNNY     45  31  58 SW10      29.97F
6HR MIN TEMP:  20; 6HR MAX TEMP:  45;

OGALLALA       CLOUDY    43  30  59 W9        29.93F
$$

NEZ005>010-023>029-035>040-094-181900-
NORTH CENTRAL NEBRASKA

CITY           SKY/WX    TMP DP  RH WIND       PRES   REMARKS
VALENTINE      CLOUDY    51  24  34 SW17      29.79F
6HR MIN TEMP:  23; 6HR MAX TEMP:  51;

AINSWORTH      SUNNY     49  27  42 W18       29.81F
BROKEN BOW     SUNNY     49  28  44 SW21G28   29.89F
6HR MIN TEMP:  24; 6HR MAX TEMP:  49;

O`NEILL        SUNNY     47  27  45 SW15      29.83F
ORD            SUNNY     49  26  41 W16       29.87F
6HR MIN TEMP:  23; 6HR MAX TEMP:  49;

THEDFORD       MOSUNNY   50  24  36 SW18G25   29.85F
$$

NEZ041-046>049-061>064-073>077-083>087-181900-
SOUTH CENTRAL NEBRASKA

CITY           SKY/WX    TMP DP  RH WIND       PRES   REMARKS
GRAND ISLAND   SUNNY     47  28  47 SW14      29.94F
6HR MIN TEMP:  28; 6HR MAX TEMP:  47;

AURORA         SUNNY     48  26  42 SW14      29.93F
HASTINGS       SUNNY     47  29  49 SW9       29.96F
6HR MIN TEMP:  25; 6HR MAX TEMP:  47;

HEBRON         SUNNY     46  30  53 SW8       29.99F
HOLDREGE       SUNNY     44  30  57 SW10      29.96F
KEARNEY        SUNNY     48  28  46 SW13      29.95F
YORK           SUNNY     48  27  43 SW12      29.94F
$$

NEZ011>018-030>034-042>045-181900-
NORTHEAST NEBRASKA

CITY           SKY/WX    TMP DP  RH WIND       PRES   REMARKS
NORFOLK        SUNNY     47  25  42 SW12      29.85F
6HR MIN TEMP:  28; 6HR MAX TEMP:  47;

ALBION         SUNNY     48  25  40 W14G21    29.88F
BLAIR          SUNNY     45  31  56 SW16      29.91F
COLUMBUS       SUNNY     46  24  42 SW12      29.91F
FREMONT        SUNNY     48  29  46 SW7       29.92F
TEKAMAH        SUNNY     47  29  49 SW16      29.90F
6HR MIN TEMP:  19; 6HR MAX TEMP:  47;

WAYNE          SUNNY     46  26  45 SW13      29.85F
$$

NEZ050>053-065>068-078-088>093-181900-
SOUTHEAST NEBRASKA

CITY           SKY/WX    TMP DP  RH WIND       PRES   REMARKS
LINCOLN        SUNNY     48  28  46 SW9       29.96F
6HR MIN TEMP:  30; 6HR MAX TEMP:  48;

OMAHA EPPLEY   MOSUNNY   46  27  47 SW10      29.93F
6HR MIN TEMP:  25; 6HR MAX TEMP:  46;

BEATRICE       SUNNY     43  32  64 SW8       29.98F
FALLS CITY     SUNNY     47  33  58 W9        29.99F
6HR MIN TEMP:  29; 6HR MAX TEMP:  47;

NEBRASKA CITY  SUNNY     42  34  73 SW15      29.96F
PLATTSMOUTH    SUNNY     45  34  65 SW13      29.94F
$$

NEZ044-045-051>053-067-181900-
OMAHA AREA

CITY           SKY/WX    TMP DP  RH WIND       PRES   REMARKS
OMAHA EPPLEY   MOSUNNY   46  27  47 SW10      29.93F
6HR MIN TEMP:  25; 6HR MAX TEMP:  46;

BLAIR          SUNNY     45  31  56 SW16      29.91F
FREMONT        SUNNY     48  29  46 SW7       29.92F
MILLARD        SUNNY     46  30  54 SW9       29.94F
OFFUTT AFB     SUNNY     45  28  52 W12       29.93F
PLATTSMOUTH    SUNNY     45  34  65 SW13      29.94F
WAHOO          FAIR      48  28  44 SW9       29.93F
$$




USA.gov is the U.S. government's official web portal to all federal, state and local government web resources and services.